Tracking 19149 objects as of 20-Apr-2018
HD Live streaming from Space Station
objects crossing your sky now

INTELSAT 702

Track INTELSAT 702 now!
INTELSAT 702 is classified as:


NORAD ID: 23124
Int'l Code: 1994-034A
Perigee: 36,135.8 km
Apogee: 36,207.2 km
Inclination: 5.1 °
Period: 1,455.4 minutes
Semi major axis: 42542 km
RCS: 25.1188 m2 (large)
Launch date: June 17, 1994
Source: International Telecommunications Satellite Organization (ITSO)
Launch site: FRENCH GUIANA (FRGUI)

42 C-band, 24 Ku-band; broadcasting, business services, direct-to-home TV broadcasting, telecommunications, VSATnetworks; Pacific Ocean region.
aabbcc
Your satellite tracking list
Your tracking list is empty




NASA's NSSDC Master Catalog

Two Line Element Set (TLE):
1 23124U 94034A   18109.26356650 -.00000212 +00000-0 +00000-0 0  9990
2 23124 005.1099 063.7170 0008391 309.2676 050.6194 00.98939151101390
Source of the keplerian elements: AFSPC